Location: Bytom
(50.3475°N, 18.9244°E)
Time: 06:25:48
(UTC+01:00)

ISS - Pass Details

Date: 02 February 2019
Orbit: 403 x 411 km, 51.6° (Epoch: 23 February)

Event Time Altitude Azimuth Distance (km) Brightness Sun altitude
Rises 18:03:14 0° 279° (W) 2,336 1.5 -13.6°
Reaches altitude 10° 18:05:20 10° 282° (WNW) 1,477 0.2 -14.0°
Maximum altitude 18:08:38 72° 7° (N) 435 -3.8 -14.5°
Enters shadow 18:10:00 32° 85° (E) 726 -3.1 -14.7°
